N0TKN Weather Reports


time (UTC)temp
C
wind
direction
speed
KPH
gust
KPH
rain 1hr
cm
rain 24hr
cm
rain mn
cm
humidity
%
barometer
mb
20260508054518 12 164 1.6 6.4 0.00 0.00 0.00 69 1012.7
20260508053516 13 164 3.2 6.4 0.00 0.00 0.00 68 1012.9
20260508052516 13 176 3.2 8.0 0.00 0.00 0.00 67 1012.9
20260508051516 13 179 3.2 9.7 0.00 0.00 0.00 66 1012.9
20260508050516 13 168 3.2 8.0 0.00 0.00 0.00 65 1012.9
20260508045517 13 170 3.2 8.0 0.00 0.00 0.00 63 1012.9
20260508044517 14 192 3.2 11.3 0.00 0.00 0.00 63 1012.9
20260508043517 14 198 3.2 8.0 0.00 0.00 0.00 62 1012.9
20260508042517 14 157 1.6 6.4 0.00 0.00 0.00 62 1013.1
20260508041517 14 167 4.8 14.5 0.00 0.00 0.00 61 1012.9
20260508040518 14 185 4.8 9.7 0.00 0.00 0.00 61 1013.0
20260508035518 14 189 3.2 9.7 0.00 0.00 0.00 62 1013.1
20260508034518 14 170 3.2 6.4 0.00 0.00 0.00 61 1013.1
20260508033518 15 172 3.2 6.4 0.00 0.00 0.00 60 1013.0
20260508032518 15 185 3.2 8.0 0.00 0.00 0.00 60 1013.0
20260508031515 15 170 4.8 9.7 0.00 0.00 0.00 59 1012.9
20260508030518 15 167 3.2 9.7 0.00 0.00 0.00 59 1013.0
20260508025516 15 166 3.2 6.4 0.00 0.00 0.00 57 1013.0
20260508024516 15 164 3.2 8.0 0.00 0.00 0.00 56 1012.9
20260508023516 16 185 3.2 9.7 0.00 0.00 0.00 56 1012.8
20260508022516 16 185 4.8 11.3 0.00 0.00 0.00 55 1012.7
20260508021517 16 179 4.8 9.7 0.00 0.00 0.00 56 1012.8
20260508020517 16 182 4.8 8.0 0.00 0.00 0.00 54 1012.6
20260508015517 16 193 3.2 6.4 0.00 0.00 0.00 53 1012.6
20260508014517 16 192 3.2 8.0 0.00 0.00 0.00 52 1012.5
20260508013519 17 194 3.2 4.8 0.00 0.00 0.00 51 1012.7
20260508012517 17 186 1.6 4.8 0.00 0.00 0.00 51 1012.6
20260508011518 17 195 1.6 4.8 0.00 0.00 0.00 51 1012.7
20260508010517 17 210 0.0 3.2 0.00 0.00 0.00 51 1012.8
20260508005517 17 236 1.6 4.8 0.00 0.00 0.00 49 1012.7
20260508004517 18 204 1.6 8.0 0.00 0.00 0.00 48 1012.5
20260508003518 18 252 1.6 6.4 0.00 0.00 0.00 47 1012.4
20260508002518 18 208 3.2 6.4 0.00 0.00 0.00 46 1012.2
20260508001515 18 200 3.2 8.0 0.00 0.00 0.00 44 1011.9
20260508000515 18 201 3.2 9.7 0.00 0.00 0.00 43 1011.9
20260507235516 19 195 6.4 19.3 0.00 0.00 0.00 43 1012.0
20260507234515 19 209 4.8 12.9 0.00 0.00 0.00 43 1011.8
20260507233516 19 201 4.8 12.9 0.00 0.00 0.00 42 1012.0
20260507232516 19 189 3.2 8.0 0.00 0.00 0.00 42 1012.2
20260507231516 20 266 3.2 9.7 0.00 0.00 0.00 42 1012.2
20260507230516 20 195 6.4 14.5 0.00 0.00 0.00 41 1012.2
20260507225516 20 239 3.2 9.7 0.00 0.00 0.00 40 1011.7
20260507224516 20 254 4.8 11.3 0.00 0.00 0.00 40 1011.9
20260507223517 20 214 4.8 11.3 0.00 0.00 0.00 40 1011.9
20260507222517 20 239 4.8 11.3 0.00 0.00 0.00 40 1012.3
20260507221517 20 191 8.0 17.7 0.00 0.00 0.00 41 1012.0
20260507220517 20 195 8.0 17.7 0.00 0.00 0.00 40 1012.2
20260507215517 20 207 6.4 17.7 0.00 0.00 0.00 40 1011.9
20260507214518 21 204 4.8 12.9 0.00 0.00 0.00 39 1012.2
20260507213518 20 238 4.8 9.7 0.00 0.00 0.00 39 1011.7
20260507212518 20 225 4.8 12.9 0.00 0.00 0.00 39 1011.9
20260507211515 20 264 6.4 9.7 0.00 0.00 0.00 40 1011.6
20260507210515 20 211 4.8 14.5 0.00 0.00 0.00 40 1011.9
20260507205518 19 238 3.2 9.7 0.00 0.00 0.00 41 1012.5
20260507204516 20 238 6.4 17.7 0.00 0.00 0.00 40 1013.2
20260507203516 20 206 8.0 19.3 0.00 0.00 0.00 40 1012.2
20260507202516 19 253 3.2 11.3 0.00 0.00 0.00 41 1013.2
20260507201516 20 266 3.2 8.0 0.00 0.00 0.00 40 1013.5
20260507200516 18 176 4.8 11.3 0.00 0.00 0.00 41 1013.1
20260507195516 19 195 6.4 12.9 0.00 0.00 0.00 40 1013.8
20260507194517 19 233 6.4 20.9 0.00 0.00 0.00 40 1013.0
20260507193517 19 209 6.4 11.3 0.00 0.00 0.00 38 1013.7
20260507192517 19 209 8.0 20.9 0.00 0.00 0.00 39 1014.2
20260507191517 19 210 8.0 27.4 0.00 0.00 0.00 39 1013.1
20260507190517 19 197 8.0 19.3 0.00 0.00 0.00 40 1013.6
20260507185517 19 194 8.0 19.3 0.00 0.00 0.00 38 1013.3
20260507184518 19 189 8.0 17.7 0.00 0.00 0.00 38 1013.5
20260507183518 18 201 4.8 12.9 0.00 0.00 0.00 40 1013.6
20260507182518 18 196 6.4 16.1 0.00 0.00 0.00 39 1013.7
20260507181518 18 205 6.4 16.1 0.00 0.00 0.00 38 1013.6
20260507180518 18 199 8.0 17.7 0.00 0.00 0.00 38 1014.3
20260507175515 18 260 6.4 17.7 0.00 0.00 0.00 39 1014.5
20260507174515 18 185 6.4 17.7 0.00 0.00 0.00 38 1014.0
20260507173516 17 211 9.7 19.3 0.00 0.00 0.00 39 1014.4
20260507172516 18 222 4.8 12.9 0.00 0.00 0.00 39 1014.3
20260507171516 17 205 6.4 14.5 0.00 0.00 0.00 40 1014.6
20260507170516 17 193 8.0 19.3 0.00 0.00 0.00 40 1014.7
20260507165516 17 223 6.4 17.7 0.00 0.00 0.00 41 1014.8
20260507164516 18 239 6.4 16.1 0.00 0.00 0.00 41 1014.7
20260507163516 17 259 4.8 11.3 0.00 0.00 0.00 41 1014.8
20260507162517 17 194 8.0 14.5 0.00 0.00 0.00 41 1014.9
20260507161517 17 236 3.2 9.7 0.00 0.00 0.00 41 1014.8
20260507160517 16 207 6.4 20.9 0.00 0.00 0.00 42 1015.1
20260507155517 16 184 4.8 11.3 0.00 0.00 0.00 44 1014.9
20260507154518 16 197 9.7 22.5 0.00 0.00 0.00 43 1015.3
20260507153517 16 202 6.4 16.1 0.00 0.00 0.00 45 1015.1
20260507152518 16 189 4.8 11.3 0.00 0.00 0.00 46 1015.1
20260507151518 15 201 6.4 17.7 0.00 0.00 0.00 46 1015.1
20260507150518 15 202 8.0 17.7 0.00 0.00 0.00 48 1015.1
20260507145515 14 194 6.4 12.9 0.00 0.00 0.00 50 1015.4
20260507144515 14 193 8.0 19.3 0.00 0.00 0.00 53 1015.2
20260507143516 13 182 6.4 17.7 0.00 0.00 0.00 54 1015.1
20260507142516 13 197 4.8 14.5 0.00 0.00 0.00 55 1015.8
20260507141516 13 174 4.8 9.7 0.00 0.00 0.00 57 1016.0
20260507140516 13 175 3.2 11.3 0.00 0.00 0.00 58 1016.0
20260507135516 13 155 3.2 8.0 0.00 0.00 0.00 68 1015.8
20260507134517 12 69 1.6 3.2 0.00 0.00 0.00 77 1015.9
20260507133516 11 76 1.6 4.8 0.00 0.00 0.00 81 1016.2
20260507132517 10 62 1.6 4.8 0.00 0.00 0.00 81 1016.3
20260507131517 10 70 1.6 4.8 0.00 0.00 0.00 81 1016.4
20260507130517 9 112 1.6 3.2 0.00 0.00 0.00 84 1016.6
20260507125517 8 78 0.0 1.6 0.00 0.00 0.00 92 1016.6
20260507124517 7 68 1.6 4.8 0.00 0.00 0.00 98 1016.7
20260507123517 7 53 1.6 3.2 0.00 0.00 0.00 99 1016.6
20260507122517 6 103 0.0 3.2 0.00 0.00 0.00 99 1016.7
20260507121517 5 0.0 0.0 0.00 0.00 0.00 99 1016.9
20260507120518 4 115 0.0 3.2 0.00 0.00 0.00 99 1017.2
20260507115516 4 0.0 0.0 0.00 0.00 0.00 99 1017.4
20260507114516 4 120 0.0 0.0 0.00 0.00 0.00 99 1017.6
20260507113516 4 0.0 0.0 0.00 0.00 0.00 99 1017.6
20260507112516 4 55 0.0 1.6 0.00 0.00 0.00 99 1017.4
20260507111516 4 254 0.0 3.2 0.00 0.00 0.00 99 1017.2
20260507110515 5 182 0.0 1.6 0.00 0.00 0.00 99 1017.3
20260507105515 4 214 0.0 1.6 0.00 0.00 0.00 99 1017.2
20260507104516 5 193 0.0 1.6 0.00 0.00 0.00 99 1017.1
20260507103516 4 229 0.0 1.6 0.00 0.00 0.00 99 1017.3
20260507102516 4 170 0.0 1.6 0.00 0.00 0.00 99 1017.3
20260507101517 5 181 0.0 1.6 0.00 0.00 0.00 99 1017.3
20260507100516 5 167 0.0 1.6 0.00 0.00 0.00 99 1017.2
20260507095516 5 205 0.0 1.6 0.00 0.00 0.00 99 1017.2
20260507094516 5 186 0.0 1.6 0.00 0.00 0.00 99 1017.2
20260507093517 5 144 0.0 1.6 0.00 0.00 0.00 99 1017.0
20260507092517 5 130 0.0 1.6 0.00 0.00 0.00 99 1016.9
20260507091517 5 112 0.0 0.0 0.00 0.03 0.00 99 1016.9
20260507090517 5 118 0.0 1.6 0.00 0.03 0.00 99 1016.7
20260507085518 5 111 0.0 3.2 0.00 0.03 0.00 100 1016.7
20260507084518 5 150 0.0 1.6 0.00 0.03 0.00 100 1016.7
20260507083518 5 117 0.0 1.6 0.00 0.03 0.00 100 1016.8
20260507082518 5 159 0.0 1.6 0.00 0.03 0.00 100 1016.8
20260507081518 5 150 0.0 1.6 0.00 0.03 0.00 99 1016.9
20260507080518 5 191 0.0 1.6 0.00 0.05 0.00 100 1017.0
20260507075515 5 5 0.0 0.0 0.00 0.08 0.00 100 1016.9
20260507074515 4 0.0 0.0 0.00 0.15 0.00 99 1017.0
20260507073516 4 0.0 0.0 0.00 0.18 0.00 99 1017.1
20260507072516 4 218 0.0 0.0 0.00 0.23 0.00 99 1017.6
20260507071516 4 0.0 0.0 0.00 0.23 0.00 98 1017.9
20260507070516 5 0.0 0.0 0.00 0.23 0.00 98 1017.8
20260507065516 5 248 0.0 1.6 0.00 0.23 0.00 98 1017.9
20260507064516 5 0.0 0.0 0.00 0.23 0.00 97 1018.0
20260507063516 5 315 0.0 1.6 0.00 0.23 0.00 97 1017.9
20260507062517 5 130 0.0 1.6 0.00 0.23 0.00 96 1017.8
20260507061517 5 202 0.0 1.6 0.00 0.23 0.00 95 1017.8
20260507060517 5 358 0.0 0.0 0.00 0.23 0.00 94 1018.0
20260507055517 5 301 0.0 1.6 0.00 0.23 0.00 93 1018.1